Unbenanntes Dokument
Flugplatz Bielefeld Platzwetter

 

Aktuelles Platzwetter am Flugplatz Bielefeld EDLI

20.09.18 ,19:09 Uhr

METAR EDLI 201908Z 08003KT 9999 16/09 Q1013

 

Windwerte

 

Wolkenuntergrenzen

Wind aktuell:080 ° mit 3 kt
Wind 10 min Extrem:
50 ° bis 100 ° mit 2 kt bis 3 kt
Seitenwindkomponente: -1.4 kt
Wolkengrenze 1:
Wolkengrenze 2:
Wolkengrenze 3:

Webcam

Temperatur

       

Sichtweite:

20.000 Meter

16.6 °C
Taupunkt: 9.5 °C
Luftfeuchtigkeit: 62 %

Luftdruck:

QNH: 1013 hPa (29.91 in Hg)
QFE: 997 hPa (29.44 in Hg)

Diese Daten werden automatisch ermittelt bzw. übertragen und sind nicht geprüft. Für die Richtigkeit wird daher keine Gewähr übernommen. Sie ersetzen im übrigen nicht die Flugwetterberatung. Alle Zeitangaben beziehen sich auf UTC. Die Seite wird einmal die Minute aktualisiert! Sollten Sie ein ältere Seite haben, so drücken Sie bitte auf den Reload Button Ihres Browsers!